Home   Weather   Ramsey   Past weeks

Flag for Isle of Man Past Weather in Ramsey, Isle of Man — Yesterday and Last 2 Weeks

Now
41 °F

Passing clouds.


Feels Like: 31 °F
Forecast: 41 / 48 °F
Wind: 22 mph from Northwest

Location: Isle Of Man / Ronaldsway Airport

Current Time: Apr 24, 2017 at 8:29:50 pm

Latest Report: Apr 24, 2017 at 7:50 pm


Visibility: N/A

Pressure: 30.01 "Hg

Humidity: 57%

Dew Point: 27 °F

Location of RamseyLocation

Past Weather in Ramsey — Graph

°F

Ramsey Temperature Yesterday

Maximum temperature yesterday: 52 °F (at 12:50 pm)
Minimum temperature yesterday: 39 °F (at 6:20 am)
Average temperature yesterday: 48 °F

High & Low Weather Summary for the Past Weeks

 TemperatureHumidityPressure
High57 °F (Apr 21, 3:20 pm)100% (Apr 14, 4:50 am)30.57 "Hg (Apr 14, 4:50 am)
Low39 °F (Apr 18, 4:50 am)34% (Apr 24, 3:50 pm)29.89 "Hg (Apr 14, 3:50 pm)
Average49 °F77%30.25 "Hg
* Reported Apr 9 7:50 pm — Apr 24 7:20 pm, Ramsey, Weather by CustomWeather, © 2017

Note: Actual official high and low records may vary slightly from our data, if they occured in-between our weather recording intervals... More about our weather records

Advertising

Ramsey Weather History for the Previous 24 Hours

Scroll right to see more
 ConditionsComfort  
Time TempWeatherWind HumidityBarometerVisibility
7:20 pm
Mon, Apr 24
43 °FPassing clouds.25 mph46%30.01 "HgN/A
6:50 pm43 °FPassing clouds.24 mph46%30.01 "HgN/A
6:20 pm43 °FPassing clouds.28 mph53%30.01 "HgN/A
5:50 pm45 °FPassing clouds.33 mph46%30.01 "HgN/A
5:20 pm46 °FPassing clouds.29 mph43%30.01 "HgN/A
4:50 pm46 °FPassing clouds.28 mph37%30.01 "HgN/A
4:20 pm46 °FPassing clouds.24 mph43%30.01 "HgN/A
3:50 pm48 °FPassing clouds.22 mph34%30.01 "HgN/A
3:20 pm48 °FPassing clouds.24 mph50%30.01 "HgN/A
2:50 pm46 °FPassing clouds.25 mph53%30.01 "HgN/A
2:20 pm48 °FPassing clouds.21 mph54%30.01 "HgN/A
1:50 pm46 °FPassing clouds.23 mph46%30.04 "HgN/A
1:20 pm48 °FPassing clouds.22 mph46%30.01 "HgN/A
12:50 pm46 °FPassing clouds.22 mph50%30.04 "HgN/A
12:20 pm45 °FPassing clouds.20 mph76%30.04 "HgN/A
11:50 am48 °FPassing clouds.21 mph66%30.04 "HgN/A
11:20 am50 °FPassing clouds.17 mph54%30.01 "HgN/A
10:50 am50 °FPassing clouds.16 mph58%30.01 "HgN/A
10:20 am48 °FPassing clouds.12 mph71%30.01 "HgN/A
9:50 am48 °FBroken clouds.15 mph71%30.01 "HgN/A
9:20 am48 °FPassing clouds.12 mph76%30.01 "HgN/A
8:50 am46 °FPartly sunny.13 mph87%30.01 "HgN/A
8:20 am46 °FLight rain. Partly sunny.14 mph87%30.01 "HgN/A
7:50 am48 °FLight rain. Mostly cloudy.17 mph82%30.01 "HgN/A
7:20 am48 °FScattered clouds.14 mph82%30.01 "HgN/A
6:50 am48 °FScattered clouds.12 mph82%30.01 "HgN/A
6:20 am48 °FPassing clouds.12 mph82%30.01 "HgN/A
5:50 am48 °FPassing clouds.13 mph82%30.01 "HgN/A
5:20 am48 °FPassing clouds.13 mph82%30.01 "HgN/A
4:50 am48 °FPassing clouds.12 mph82%30.04 "HgN/A
3:50 am50 °FLow clouds.12 mph76%30.04 "HgN/A
2:50 am50 °FPassing clouds.12 mph82%30.07 "HgN/A
1:50 am50 °FPassing clouds.9 mph82%30.09 "HgN/A
12:50 am50 °FPassing clouds.12 mph82%30.09 "HgN/A
11:50 pm
Sun, Apr 23
50 °FPassing clouds.5 mph82%30.12 "HgN/A
10:50 pm50 °FPassing clouds.10 mph88%30.12 "HgN/A
9:50 pm50 °FPassing clouds.12 mph94%30.15 "HgN/A
8:50 pm50 °FPartly cloudy.12 mph88%30.15 "HgN/A
8:20 pm48 °FScattered clouds.14 mph94%30.15 "HgN/A
Weather by CustomWeather, © 2017

See weather overviewHow to use our weather pages